Regional Weather Roundup
Issued by NWS

Home | Current Version | Previous Version | Graphics & Text | Print | Product List | Glossary On
Versions: 1 2 3 4 5 6 7 8 9 10 11 12 13 14 15 16 17 18 19 20 21 22 23 24 25 26 27 28 29 30 31 32 33 34 35 36 37 38 39 40 41 42 43 44 45 46 47 48
000
ASUS45 KBOU 181807
RWRCO

WEATHER ROUNDUP FOR COLORADO
NATIONAL WEATHER SERVICE DENVER/BOULDER CO
1200 PM MDT THU SEP 18 2014

NOTE: "FAIR" INDICATES FEW OR NO CLOUDS BELOW 12000 FEET WITH NO
SIGNIFICANT WEATHER AND/OR OBSTRUCTIONS TO VISIBILITY.

COZ001>005-013-030-031-181900-
...NORTHWEST COLORADO...

CITY           SKY/WX    TMP DP  RH WIND       PRES   REMARKS
CRAIG          SUNNY     78  38  23 VRB3      30.10F
HAYDEN         SUNNY     75  34  22 N5        30.12F
MEEKER         SUNNY     77  39  25 CALM      30.11F
MOUNT WERNER   NOT AVBL
STEAMBOAT SPGS SUNNY     72  38  29 CALM      30.15F
WALDEN         SUNNY     70  36  28 CALM      30.25F
$$

COZ006>008-011-181900-
...WEST CENTRAL VALLEYS...

CITY           SKY/WX    TMP DP  RH WIND       PRES   REMARKS
GRAND JUNCTION SUNNY     76  40  27 S6        30.03F
MONTROSE       SUNNY     78  45  30 N8        30.09F
EAGLE            N/A     68  37  32 CALM      30.17F
RIFLE          SUNNY     74  39  28 CALM      30.07F
DELTA          SUNNY     78  39  24 W3        30.05F
NUCLA          SUNNY     72  43  35 CALM      30.14F
$$

COZ017>023-064>068-181900-
...SOUTHWEST COLORADO...

CITY           SKY/WX    TMP DP  RH WIND       PRES   REMARKS
DURANGO        SUNNY     75  38  26 SW6       30.14F
CORTEZ         SUNNY     75  48  38 VRB5      30.10F
PAGOSA SPRINGS SUNNY     75  29  18 S10       30.20F
TELLURIDE      NOT AVBL
WOLF CREEK PAS SUNNY     54  27  35 E13G28    30.51F
$$

COZ009-010-012-014-032>034-037-058>063-181900-
...CENTRAL COLORADO...

CITY           SKY/WX    TMP DP  RH WIND       PRES   REMARKS
ASPEN          SUNNY     74  38  27 N6        30.20F
BUENA VISTA    SUNNY     74  31  20 SE3       30.25F
COPPER MTN     SUNNY     64  23  20 S6G17     30.54F
BERTHOUD PASS  FAIR      52  50  93 SE9G21    30.59F
COTTONWOOD PAS SUNNY     72  25  17 E8G18     30.39F
GUNNISON       SUNNY     66  39  37 CALM      30.25F
KREMMLING      SUNNY     66  32  28 CALM      30.22F
LEADVILLE      SUNNY     64  28  25 S12       30.37F
MONARCH PASS   SUNNY     55  32  41 E17G23    30.63F
SALIDA         SUNNY     74  35  24 CALM      30.29F
SUNLIGHT       SUNNY     63  32  31 SE3       30.46S
WILKERSON PASS NOT AVBL
$$

COZ069>075-181900-
...SAN LUIS VALLEY/SANGRE DE CRISTO MOUNTAINS...

CITY           SKY/WX    TMP DP  RH WIND       PRES   REMARKS
ALAMOSA        SUNNY     73  41  31 VRB7      30.21F
LA VETA PASS   SUNNY     66  30  26 NE13G26   30.40
SAGUACHE       NOT AVBL
$$

COZ035-036-038>040-181900-
...NORTHERN COLORADO FRONT RANGE...

CITY           SKY/WX    TMP DP  RH WIND       PRES   REMARKS
DENVER INTL AP MOSUNNY   83  40  21 VRB3      30.05F
DMNS CITY PARK   N/A     83  40  21 CALM      30.04F
AURORA         NOT AVBL
FRONT RANGE AP MOSUNNY   84  43  23 S3        30.06F
ERIE MUNI ARPT SUNNY     83  38  19 S3        30.02F
BOULDER MUN AP SUNNY     81  45  28 E3        30.03F
CENTENNIAL     MOSUNNY   80  38  22 CALM      30.08F
BROOMFIELD     NOT AVBL
FORT COLLINS   SUNNY     81  46  30 S6        30.03F
LONGMONT       SUNNY     85  43  22 CALM      30.03F
$$

COZ041-046-047-076>085-087-088-181900-
...PIKES PEAK/PALMER DIVIDE AND SOUTHERN FOOTHILLS...

CITY           SKY/WX    TMP DP  RH WIND       PRES   REMARKS
COLO. SPRINGS  MOSUNNY   84  32  15 S13G18    30.12F
A. F. ACADEMY  NOT AVBL
ELLICOTT       NOT AVBL
FALCON         SUNNY     81  32  17 S8G17     30.18F
FORT CARSON    NOT AVBL
LIMON          SUNNY     85  33  15 S10       30.05F
MONUMENT HILL  SUNNY     79  32  18 SW8       30.16F
TRINIDAD       SUNNY     81  32  17 E8        30.10F
$$

COZ042>045-048>051-090-091-181900-
...NORTHEAST COLORADO...

CITY           SKY/WX    TMP DP  RH WIND       PRES   REMARKS
GREELEY ARPT   SUNNY     81  45  28 S3        30.02F
AKRON            N/A    N/A N/A N/A MISG      30.01F
BURLINGTON     SUNNY     78  60  53 S9        30.01F
WRAY           SUNNY     79  61  54 SE8       29.98F
STERLING       SUNNY     82  55  39 S6        29.97F
HOLYOKE        CLOUDY    73  64  73 S9        29.99F
FORT MORGAN    SUNNY     82  44  26 S6        30.01F
$$

COZ086-089-092>099-181900-
...SOUTHEAST COLORADO...

CITY           SKY/WX    TMP DP  RH WIND       PRES   REMARKS
PUEBLO         SUNNY     86  37  17 CALM      30.01F
LA JUNTA       SUNNY     85  44  23 S9        30.00F
LAMAR          SUNNY     86  46  24 S5        29.96F
SPRINGFIELD      N/A     83  49  30 S16       30.03S
$$



USA.gov is the U.S. government's official web portal to all federal, state and local government web resources and services.